Weather in Vasil'yevskiy

Russia / Tula Oblast     54°27′33″N   38°10′50″E
temp.,
°C
wind,
m/s
gust,
m/s
humid.,
%
clouds,
%
prec.,
mm/h
press.,
hPa
HPBL,
m
12 may, wed
wed1200:00+9se339236 0.0 102646
03:00+7se22925 0.0 102726
06:00+8ese11882 0.0 102744
09:00+9nne1189100 0.2 102657
12:00+10n4892100 1.3 1023424
15:00+11sse1897100 4.7 1020434
18:00+9wsw2498100 5.3 1019138
21:00+7sse369829 5.4 1021122
13 may, thu
thu1300:00+6ese359826 0.0 102189
03:00+6e489792 0.0 1021147
06:00+8ese4109492 0.0 1020258
09:00+12ese478186 0.0 1019324
12:00+16e5666100 0.0 1017814
15:00+18ese68655 0.0 10141365
18:00+8wnw479646 3.5 1016227
21:00+8s2294100 3.5 101735
14 may, fri
fri1400:00+7s339419 0.0 101832
03:00+7sse229252 0.0 101817
06:00+9ese3592100 0.0 1019118
09:00+14ese468190 0.0 1018372
12:00+19se587198 0.0 1016874
15:00+22se696723 0.8 10141345
18:00+20sse51176100 2.3 1013311
21:00+17sse51285100 3.1 1012234
15 may, sat
sat1500:00+15s3593100 0.8 101277
03:00+15se3493100 0.9 101164
06:00+15s3693100 0.4 1011148
09:00+18se41081100 0.4 1010342
12:00+17sse368550 2.1 1010231
15:00+21s610682 3.0 10101367
18:00+20ssw597619 0.9 1009782
21:00+15ssw411913 2.9 1010233
16 may, sun
sun1600:00+13sw41094100 0.0 1011220
03:00+12wsw499627 0.0 1012216
06:00+11sw410910 0.0 1014349
09:00+15wsw69750 0.0 1015719
12:00+18wsw566315 0.0 10151349
15:00+20wsw575910 0.0 10151622
18:00+19w3470100 0.0 1016433
21:00+14nnw228699 0.0 101612